TVF67PV LGIR-LFPO

Flight info

Callsign TVF67PV
Flight time N/A
Altitude 36000
Route EPALO M749 DIRMI UL613 KOR DCT DIMIS DCT VAKSU DCT AMUGO DCT BAXON/N0454F380 DCT TZO DCT AOSTA DCT ORSUD DCT MOLUS DCT UNKIR DCT DJL
Aircraft B738/M-SDFGHIJ1RWXY/LB1

Departure

Time 2026-05-04 13:35
Airport Heraklion International Nikos Kazantzakis Airport (LGIR)

Arrival

Time N/A
Airport Paris-Orly Airport (LFPO)
Time Latitude Longitude Altitude Speed Heading
2026-05-04 13:03 35.33868 25.17549 90 ft 0 kts 312°
2026-05-04 13:28 35.33869 25.17548 91 ft 0 kts 314°
2026-05-04 13:31 35.33871 25.17544 90 ft 2 kts 314°
2026-05-04 13:31 35.33895 25.17535 91 ft 6 kts
2026-05-04 13:31 35.33907 25.17592 92 ft 9 kts 97°
2026-05-04 13:32 35.33898 25.17697 91 ft 15 kts 94°
2026-05-04 13:32 35.33890 25.17824 91 ft 15 kts 95°
2026-05-04 13:32 35.33881 25.17947 94 ft 14 kts 95°
2026-05-04 13:32 35.33873 25.18064 91 ft 14 kts 94°
2026-05-04 13:33 35.33866 25.18173 92 ft 13 kts 94°
2026-05-04 13:33 35.33857 25.18304 91 ft 18 kts 95°
2026-05-04 13:33 35.33845 25.18470 91 ft 20 kts 95°
2026-05-04 13:33 35.33834 25.18636 89 ft 19 kts 95°
2026-05-04 13:34 35.33822 25.18792 89 ft 19 kts 95°
2026-05-04 13:34 35.33826 25.18940 90 ft 18 kts 63°
2026-05-04 13:34 35.33895 25.19016 87 ft 10 kts 333°
2026-05-04 13:34 35.33913 25.18924 90 ft 18 kts 274°
2026-05-04 13:35 35.33944 25.18484 92 ft 86 kts 274°
2026-05-04 13:35 35.34087 25.16237 694 ft 149 kts 278°
2026-05-04 13:35 35.34386 25.15022 1418 ft 154 kts 312°
2026-05-04 13:36 35.35310 25.14384 2132 ft 162 kts 339°
2026-05-04 13:36 35.36488 25.13965 2391 ft 190 kts 341°
2026-05-04 13:36 35.37819 25.13470 2649 ft 208 kts 340°
2026-05-04 13:36 35.39261 25.12934 2907 ft 228 kts 341°
2026-05-04 13:37 35.40826 25.12355 3307 ft 243 kts 341°
2026-05-04 13:37 35.42424 25.11767 4116 ft 242 kts 341°
2026-05-04 13:37 35.44049 25.11171 4961 ft 242 kts 342°
2026-05-04 13:37 35.45641 25.10586 5912 ft 237 kts 342°
2026-05-04 13:38 35.47231 25.10001 6686 ft 240 kts 341°
2026-05-04 13:38 35.48845 25.09407 7392 ft 244 kts 342°
2026-05-04 13:38 35.50488 25.08801 8063 ft 249 kts 342°
2026-05-04 13:38 35.52159 25.08185 8752 ft 253 kts 342°
2026-05-04 13:39 35.53858 25.07559 9449 ft 257 kts 342°
2026-05-04 13:39 35.55582 25.06923 10122 ft 261 kts 342°
2026-05-04 13:39 35.57356 25.06268 10511 ft 276 kts 342°
2026-05-04 13:39 35.59267 25.05561 10675 ft 297 kts 342°
2026-05-04 13:40 35.61316 25.04804 10831 ft 317 kts 342°
2026-05-04 13:40 35.63494 25.03999 10981 ft 336 kts 342°
2026-05-04 13:40 35.65784 25.03153 11296 ft 348 kts 342°
2026-05-04 13:40 35.68119 25.02290 11850 ft 352 kts 342°
2026-05-04 13:41 35.70477 25.01417 12501 ft 355 kts 342°
2026-05-04 13:41 35.72841 25.00495 13101 ft 359 kts 340°
2026-05-04 13:41 35.75191 24.99423 13739 ft 362 kts 338°
2026-05-04 13:42 35.79911 24.97153 15020 ft 365 kts 338°
2026-05-04 13:42 35.82281 24.96016 15706 ft 366 kts 338°
2026-05-04 13:42 35.84662 24.94883 16374 ft 368 kts 338°
2026-05-04 13:42 35.87058 24.93749 17017 ft 370 kts 337°
2026-05-04 13:43 35.89464 24.92613 17651 ft 371 kts 337°
2026-05-04 13:43 35.91885 24.91473 18279 ft 373 kts 337°
2026-05-04 13:43 35.94317 24.90327 18831 ft 375 kts 337°
2026-05-04 13:43 35.96753 24.89179 19380 ft 376 kts 337°
2026-05-04 13:44 35.99224 24.88012 19751 ft 382 kts 337°
2026-05-04 13:44 36.01712 24.86838 20293 ft 383 kts 337°
2026-05-04 13:44 36.04181 24.85629 20918 ft 380 kts 333°
2026-05-04 13:44 36.06497 24.84074 21493 ft 379 kts 326°
2026-05-04 13:45 36.08604 24.82123 22015 ft 379 kts 321°
2026-05-04 13:45 36.10652 24.80068 22519 ft 380 kts 321°
2026-05-04 13:45 36.12707 24.78008 23017 ft 380 kts 321°
2026-05-04 13:45 36.14767 24.75951 23516 ft 381 kts 321°
2026-05-04 13:46 36.16831 24.73893 23933 ft 382 kts 321°
2026-05-04 13:46 36.18906 24.71829 24266 ft 384 kts 321°
2026-05-04 13:46 36.20969 24.69778 24571 ft 386 kts 321°
2026-05-04 13:46 36.23070 24.67688 24892 ft 388 kts 321°
2026-05-04 13:47 36.25182 24.65588 25217 ft 391 kts 321°
2026-05-04 13:47 36.27319 24.63462 25388 ft 396 kts 321°
2026-05-04 13:47 36.29474 24.61316 25709 ft 398 kts 321°
2026-05-04 13:47 36.31629 24.59168 26069 ft 398 kts 321°
2026-05-04 13:48 36.33789 24.57014 26378 ft 399 kts 321°
2026-05-04 13:48 36.35959 24.54848 26651 ft 401 kts 321°
2026-05-04 13:48 36.38141 24.52668 26926 ft 403 kts 321°
2026-05-04 13:48 36.40328 24.50481 27217 ft 405 kts 321°
2026-05-04 13:49 36.42522 24.48287 27547 ft 404 kts 321°
2026-05-04 13:49 36.44705 24.46102 27998 ft 402 kts 321°
2026-05-04 13:49 36.46873 24.43931 28466 ft 399 kts 321°
2026-05-04 13:49 36.49029 24.41768 28872 ft 398 kts 321°
2026-05-04 13:50 36.51184 24.39603 29234 ft 398 kts 321°
2026-05-04 13:50 36.53333 24.37443 29621 ft 397 kts 321°
2026-05-04 13:50 36.55479 24.35284 29976 ft 397 kts 321°
2026-05-04 13:50 36.57622 24.33125 30307 ft 397 kts 321°
2026-05-04 13:51 36.59765 24.30966 30653 ft 395 kts 321°
2026-05-04 13:51 36.61894 24.28819 30972 ft 394 kts 321°
2026-05-04 13:51 36.64024 24.26668 31262 ft 394 kts 321°
2026-05-04 13:51 36.66152 24.24520 31551 ft 394 kts 321°
2026-05-04 13:52 36.70394 24.20230 32169 ft 392 kts 320°
2026-05-04 13:52 36.72510 24.18089 32456 ft 392 kts 320°
2026-05-04 13:52 36.74625 24.15946 32748 ft 391 kts 320°
2026-05-04 13:53 36.76734 24.13808 33045 ft 390 kts 320°
2026-05-04 13:53 36.78840 24.11672 33327 ft 390 kts 320°
2026-05-04 13:53 36.80942 24.09537 33602 ft 390 kts 320°
2026-05-04 13:54 36.85167 24.05243 33917 ft 394 kts 320°
2026-05-04 13:54 36.87288 24.03085 34233 ft 392 kts 320°
2026-05-04 13:54 36.91527 23.98768 34549 ft 395 kts 320°
2026-05-04 13:55 36.93662 23.96594 34720 ft 396 kts 320°
2026-05-04 13:55 36.97933 23.92243 35099 ft 397 kts 320°
2026-05-04 13:55 37.00047 23.90086 35248 ft 398 kts 320°
2026-05-04 13:56 37.02193 23.87896 35428 ft 398 kts 320°
2026-05-04 13:56 37.04339 23.85702 35608 ft 399 kts 320°
2026-05-04 13:56 37.08643 23.81299 35929 ft 400 kts 320°
2026-05-04 13:57 37.10800 23.79089 36129 ft 401 kts 321°
2026-05-04 13:58 37.19468 23.70193 36950 ft 398 kts 321°
2026-05-04 13:58 37.23750 23.65788 37206 ft 400 kts 321°
2026-05-04 13:58 37.25913 23.63561 37237 ft 404 kts 321°
2026-05-04 13:59 37.30277 23.59061 37405 ft 407 kts 320°
2026-05-04 13:59 37.34651 23.54544 37734 ft 407 kts 320°
2026-05-04 14:00 37.36840 23.52281 37817 ft 408 kts 320°
2026-05-04 14:00 37.41223 23.47745 38115 ft 408 kts 321°
2026-05-04 14:00 37.43420 23.45468 38111 ft 411 kts 321°
2026-05-04 14:01 37.47839 23.40882 38113 ft 412 kts 321°
2026-05-04 14:02 37.54471 23.33988 38124 ft 412 kts 321°
2026-05-04 14:02 37.58895 23.29379 38120 ft 413 kts 321°
2026-05-04 14:03 37.63319 23.24764 38117 ft 412 kts 321°
2026-05-04 14:03 37.67735 23.20150 38142 ft 412 kts 321°
2026-05-04 14:04 37.74368 23.13204 38123 ft 413 kts 321°
2026-05-04 14:04 37.78789 23.08565 38107 ft 413 kts 321°
2026-05-04 14:05 37.85428 23.01585 38119 ft 414 kts 321°
2026-05-04 14:06 37.89856 22.96920 38112 ft 414 kts 321°
2026-05-04 14:06 37.93533 22.93042 38120 ft 414 kts 321°
2026-05-04 14:07 37.97962 22.88388 38110 ft 413 kts 321°
2026-05-04 14:07 38.02380 22.83749 38109 ft 412 kts 321°
2026-05-04 14:08 38.06778 22.79120 38111 ft 410 kts 321°
2026-05-04 14:08 38.11155 22.74504 38108 ft 408 kts 321°
2026-05-04 14:09 38.17659 22.67629 38108 ft 406 kts 321°
2026-05-04 14:10 38.24164 22.60737 38112 ft 406 kts 321°
2026-05-04 14:10 38.28495 22.56139 38115 ft 406 kts 321°
2026-05-04 14:11 38.32830 22.51529 38110 ft 407 kts 321°
2026-05-04 14:11 38.39349 22.44583 38088 ft 408 kts 321°
2026-05-04 14:12 38.43705 22.39932 38103 ft 409 kts 321°
2026-05-04 14:13 38.50264 22.32915 38095 ft 411 kts 321°
2026-05-04 14:13 38.54651 22.28212 38103 ft 412 kts 321°
2026-05-04 14:14 38.59041 22.23498 38113 ft 412 kts 321°
2026-05-04 14:14 38.65632 22.16404 38098 ft 413 kts 321°
2026-05-04 14:15 38.74373 22.06972 38087 ft 412 kts 321°
2026-05-04 14:16 38.80927 21.99878 38107 ft 411 kts 321°
2026-05-04 14:17 38.87477 21.92770 38082 ft 411 kts 321°
2026-05-04 14:18 38.94002 21.85672 38087 ft 409 kts 321°
2026-05-04 14:19 39.02690 21.76195 38080 ft 410 kts 321°
2026-05-04 14:19 39.07045 21.71432 38096 ft 412 kts 321°
2026-05-04 14:20 39.11415 21.66643 38086 ft 413 kts 321°
2026-05-04 14:20 39.15796 21.61838 38086 ft 414 kts 321°
2026-05-04 14:21 39.22381 21.54597 38084 ft 415 kts 321°
2026-05-04 14:21 39.26765 21.49763 38089 ft 414 kts 321°
2026-05-04 14:22 39.31139 21.44934 38086 ft 413 kts 321°
2026-05-04 14:22 39.35505 21.40110 38104 ft 413 kts 321°
2026-05-04 14:23 39.42058 21.32846 38072 ft 415 kts 321°
2026-05-04 14:24 39.46422 21.27999 38093 ft 413 kts 321°
2026-05-04 14:24 39.50751 21.23182 38094 ft 413 kts 321°
2026-05-04 14:25 39.55126 21.18307 38087 ft 412 kts 321°
2026-05-04 14:25 39.61590 21.11087 38086 ft 408 kts 321°
2026-05-04 14:26 39.65882 21.06284 38099 ft 407 kts 320°
2026-05-04 14:26 39.70166 21.01481 38104 ft 407 kts 321°
2026-05-04 14:27 39.74456 20.96665 38105 ft 408 kts 321°
2026-05-04 14:27 39.78754 20.91830 38106 ft 409 kts 321°
2026-05-04 14:28 39.83065 20.86972 38101 ft 411 kts 321°
2026-05-04 14:28 39.87389 20.82091 38088 ft 413 kts 321°
2026-05-04 14:29 39.96090 20.72242 38091 ft 416 kts 320°
2026-05-04 14:30 40.00465 20.67278 38092 ft 418 kts 320°
2026-05-04 14:31 40.07058 20.59780 38073 ft 420 kts 320°
2026-05-04 14:32 40.16184 20.50291 38088 ft 419 kts 323°
2026-05-04 14:32 40.20794 20.45612 38071 ft 419 kts 323°
2026-05-04 14:33 40.25378 20.40911 38078 ft 418 kts 323°
2026-05-04 14:33 40.29947 20.36194 38086 ft 418 kts 323°
2026-05-04 14:34 40.34506 20.31476 38087 ft 417 kts 323°
2026-05-04 14:34 40.39027 20.26788 38103 ft 417 kts 323°
2026-05-04 14:35 40.43572 20.22067 38096 ft 416 kts 323°
2026-05-04 14:35 40.48141 20.17313 38097 ft 416 kts 323°
2026-05-04 14:36 40.52671 20.12591 38080 ft 416 kts 322°
2026-05-04 14:36 40.57168 20.07896 38089 ft 415 kts 322°
2026-05-04 14:37 40.61690 20.03166 38104 ft 415 kts 322°
2026-05-04 14:37 40.66212 19.98428 38108 ft 416 kts 322°
2026-05-04 14:38 40.70734 19.93681 38108 ft 416 kts 322°
2026-05-04 14:38 40.75263 19.88918 38112 ft 417 kts 322°
2026-05-04 14:39 40.79795 19.84144 38106 ft 417 kts 322°
2026-05-04 14:39 40.84330 19.79358 38099 ft 418 kts 322°
2026-05-04 14:40 40.91129 19.72166 38111 ft 418 kts 322°
2026-05-04 14:40 40.95663 19.67359 38117 ft 418 kts 322°
2026-05-04 14:41 41.00195 19.62545 38115 ft 418 kts 322°
2026-05-04 14:42 41.09257 19.52894 38119 ft 418 kts 322°
2026-05-04 14:42 41.13787 19.48057 38117 ft 418 kts 322°
2026-05-04 14:43 41.18319 19.43208 38108 ft 418 kts 322°
2026-05-04 14:43 41.22842 19.38359 38115 ft 418 kts 322°
2026-05-04 14:44 41.27364 19.33504 38114 ft 418 kts 322°
2026-05-04 14:44 41.31883 19.28642 38114 ft 418 kts 322°
2026-05-04 14:45 41.36368 19.23809 38109 ft 417 kts 322°
2026-05-04 14:45 41.40907 19.18908 38111 ft 418 kts 321°
2026-05-04 14:46 41.45387 19.14061 38110 ft 418 kts 321°
2026-05-04 14:46 41.49898 19.09173 38101 ft 417 kts 321°
2026-05-04 14:47 41.54401 19.04284 38103 ft 417 kts 321°
2026-05-04 14:47 41.58901 18.99388 38104 ft 417 kts 321°
2026-05-04 14:48 41.63403 18.94482 38103 ft 417 kts 321°
2026-05-04 14:48 41.67902 18.89570 38105 ft 418 kts 321°
2026-05-04 14:49 41.72400 18.84649 38109 ft 418 kts 321°
2026-05-04 14:49 41.76899 18.79720 38109 ft 418 kts 321°
2026-05-04 14:50 41.81393 18.74784 38104 ft 417 kts 321°
2026-05-04 14:50 41.85884 18.69844 38107 ft 417 kts 321°
2026-05-04 14:51 41.90369 18.64901 38112 ft 417 kts 321°
2026-05-04 14:51 41.94853 18.59949 38114 ft 417 kts 321°
2026-05-04 14:52 41.99337 18.54989 38111 ft 417 kts 321°
2026-05-04 14:52 42.03383 18.49409 38117 ft 418 kts 309°
2026-05-04 14:53 42.06896 18.43159 38109 ft 419 kts 308°
2026-05-04 14:53 42.10408 18.36909 38111 ft 419 kts 308°
2026-05-04 14:54 42.13339 18.31722 38115 ft 418 kts 308°
2026-05-04 14:54 42.16869 18.25484 38119 ft 419 kts 308°
2026-05-04 14:55 42.20403 18.19233 38122 ft 419 kts 308°
2026-05-04 14:55 42.23931 18.12979 38126 ft 419 kts 308°
2026-05-04 14:56 42.27458 18.06712 38126 ft 419 kts 308°
2026-05-04 14:56 42.30988 18.00427 38124 ft 420 kts 308°
2026-05-04 14:57 42.34513 17.94139 38127 ft 420 kts 308°
2026-05-04 14:57 42.38039 17.87833 38121 ft 420 kts 308°
2026-05-04 14:58 42.41460 17.81704 38119 ft 420 kts 308°
2026-05-04 14:58 42.44954 17.75431 38124 ft 421 kts 308°
2026-05-04 14:59 42.48471 17.69102 38117 ft 420 kts 308°
2026-05-04 15:00 42.53741 17.59597 38113 ft 420 kts 308°
2026-05-04 15:00 42.57086 17.53097 38122 ft 420 kts 304°
2026-05-04 15:01 42.61864 17.43117 38111 ft 420 kts 304°
2026-05-04 15:01 42.65051 17.36469 38111 ft 420 kts 304°
2026-05-04 15:02 42.68244 17.29833 38109 ft 419 kts 304°
2026-05-04 15:02 42.71436 17.23203 38112 ft 419 kts 304°
2026-05-04 15:03 42.74625 17.16569 38107 ft 419 kts 304°
2026-05-04 15:03 42.77808 17.09932 38109 ft 419 kts 304°
2026-05-04 15:04 42.80987 17.03286 38098 ft 419 kts 303°
2026-05-04 15:04 42.84159 16.96641 38110 ft 418 kts 303°
2026-05-04 15:05 42.87328 16.89989 38106 ft 418 kts 303°
2026-05-04 15:05 42.90492 16.83329 38108 ft 419 kts 303°
2026-05-04 15:06 42.93659 16.76650 38100 ft 419 kts 303°
2026-05-04 15:07 42.98406 16.66609 38097 ft 420 kts 303°
2026-05-04 15:07 43.01568 16.59903 38104 ft 420 kts 303°
2026-05-04 15:08 43.04731 16.53180 38103 ft 420 kts 303°
2026-05-04 15:08 43.07887 16.46455 38103 ft 420 kts 303°
2026-05-04 15:09 43.11042 16.39717 38107 ft 421 kts 303°
2026-05-04 15:09 43.14194 16.32971 38096 ft 421 kts 302°
2026-05-04 15:10 43.18893 16.22884 38103 ft 421 kts 302°
2026-05-04 15:11 43.23625 16.12692 38107 ft 421 kts 302°
2026-05-04 15:11 43.26739 16.05964 38105 ft 420 kts 302°
2026-05-04 15:12 43.29869 15.99188 38106 ft 420 kts 302°
2026-05-04 15:12 43.32995 15.92404 38107 ft 420 kts 302°
2026-05-04 15:13 43.36118 15.85612 38105 ft 420 kts 302°
2026-05-04 15:13 43.39234 15.78817 38102 ft 420 kts 302°
2026-05-04 15:14 43.42347 15.72013 38107 ft 420 kts 302°
2026-05-04 15:14 43.45459 15.65198 38121 ft 420 kts 302°
2026-05-04 15:15 43.48562 15.58385 38116 ft 420 kts 301°
2026-05-04 15:15 43.51662 15.51564 38109 ft 420 kts 301°
2026-05-04 15:16 43.56297 15.41333 38103 ft 419 kts 301°
2026-05-04 15:17 43.60919 15.31097 38112 ft 419 kts 301°
2026-05-04 15:17 43.65508 15.20896 38092 ft 419 kts 301°
2026-05-04 15:18 43.68579 15.14052 38097 ft 419 kts 301°
2026-05-04 15:19 43.73171 15.03784 38094 ft 419 kts 301°
2026-05-04 15:19 43.77753 14.93505 38082 ft 418 kts 301°
2026-05-04 15:20 43.80799 14.86650 38093 ft 418 kts 300°
2026-05-04 15:20 43.83841 14.79788 38090 ft 418 kts 300°
2026-05-04 15:21 43.86878 14.72923 38081 ft 418 kts 300°
2026-05-04 15:22 43.91418 14.62627 38075 ft 417 kts 300°
2026-05-04 15:22 43.95944 14.52326 38078 ft 417 kts 300°
2026-05-04 15:23 43.98955 14.45455 38074 ft 416 kts 300°
2026-05-04 15:23 44.01960 14.38578 38081 ft 416 kts 300°
2026-05-04 15:24 44.07957 14.24810 38076 ft 416 kts 300°
2026-05-04 15:25 44.10947 14.17918 38078 ft 416 kts 300°
2026-05-04 15:26 44.15431 14.07555 38083 ft 417 kts 300°
2026-05-04 15:26 44.19913 13.97156 38083 ft 418 kts 300°
2026-05-04 15:27 44.24375 13.86768 38077 ft 419 kts 299°
2026-05-04 15:28 44.28854 13.76300 38077 ft 419 kts 299°
2026-05-04 15:29 44.33333 13.65796 38079 ft 420 kts 299°
2026-05-04 15:30 44.43415 13.40925 38093 ft 420 kts 292°
2026-05-04 15:31 44.46839 13.29642 38079 ft 420 kts 291°
2026-05-04 15:32 44.52601 13.10825 38067 ft 421 kts 292°
2026-05-04 15:34 44.58384 12.91983 38062 ft 421 kts 291°
2026-05-04 15:34 44.61836 12.80667 38066 ft 420 kts 291°
2026-05-04 15:35 44.65273 12.69348 38076 ft 420 kts 291°
2026-05-04 15:36 44.68679 12.58085 38081 ft 419 kts 291°
2026-05-04 15:36 44.70951 12.50540 38075 ft 419 kts 291°
2026-05-04 15:37 44.73218 12.42992 38088 ft 419 kts 291°
2026-05-04 15:37 44.75479 12.35441 38086 ft 419 kts 291°
2026-05-04 15:38 44.77736 12.27882 38090 ft 419 kts 291°
2026-05-04 15:38 44.79987 12.20319 38086 ft 419 kts 291°
2026-05-04 15:39 44.82234 12.12746 38081 ft 419 kts 291°
2026-05-04 15:40 44.85736 12.01458 38080 ft 420 kts 293°
2026-05-04 15:40 44.88234 11.94009 38071 ft 420 kts 293°
2026-05-04 15:41 44.90716 11.86558 38080 ft 420 kts 293°
2026-05-04 15:41 44.93173 11.79089 38072 ft 420 kts 292°
2026-05-04 15:42 44.95616 11.71608 38074 ft 419 kts 292°
2026-05-04 15:42 44.97639 11.65385 38069 ft 419 kts 292°
2026-05-04 15:43 45.00068 11.57897 38067 ft 420 kts 292°
2026-05-04 15:43 45.02496 11.50394 38071 ft 420 kts 292°
2026-05-04 15:44 45.04917 11.42887 38062 ft 420 kts 292°
2026-05-04 15:44 45.07338 11.35363 38060 ft 420 kts 292°
2026-05-04 15:45 45.09754 11.27831 38059 ft 420 kts 292°
2026-05-04 15:45 45.12165 11.20290 38075 ft 421 kts 292°
2026-05-04 15:46 45.14573 11.12739 38078 ft 421 kts 292°
2026-05-04 15:46 45.16976 11.05181 38077 ft 421 kts 292°
2026-05-04 15:47 45.19377 10.97610 38075 ft 421 kts 292°
2026-05-04 15:47 45.21771 10.90035 38075 ft 421 kts 292°
2026-05-04 15:48 45.24161 10.82454 38055 ft 421 kts 291°
2026-05-04 15:48 45.27720 10.71122 38058 ft 421 kts 291°
2026-05-04 15:49 45.30096 10.63525 38054 ft 421 kts 291°
2026-05-04 15:49 45.32468 10.55921 38052 ft 421 kts 291°
2026-05-04 15:50 45.34834 10.48314 38061 ft 421 kts 291°
2026-05-04 15:50 45.37198 10.40693 38051 ft 421 kts 291°
2026-05-04 15:51 45.39558 10.33060 38048 ft 421 kts 291°
2026-05-04 15:51 45.41911 10.25424 38049 ft 421 kts 291°
2026-05-04 15:52 45.44261 10.17780 38048 ft 421 kts 291°
2026-05-04 15:52 45.46605 10.10129 38056 ft 422 kts 291°
2026-05-04 15:53 45.48945 10.02470 38057 ft 422 kts 291°
2026-05-04 15:53 45.51279 9.94804 38072 ft 421 kts 290°
2026-05-04 15:54 45.53607 9.87138 38075 ft 421 kts 290°
2026-05-04 15:54 45.55930 9.79464 38074 ft 421 kts 290°
2026-05-04 15:55 45.58236 9.71824 38076 ft 422 kts 290°
2026-05-04 15:55 45.60553 9.64123 38077 ft 422 kts 290°
2026-05-04 15:56 45.62866 9.56412 38188 ft 423 kts 290°
2026-05-04 15:56 45.65178 9.48679 38182 ft 423 kts 290°
2026-05-04 15:57 45.67488 9.40934 38174 ft 424 kts 290°
2026-05-04 15:57 45.69796 9.33165 38080 ft 425 kts 290°
2026-05-04 15:58 45.72107 9.25368 38073 ft 426 kts 290°
2026-05-04 15:58 45.74416 9.17548 38070 ft 427 kts 290°
2026-05-04 15:59 45.76724 9.09709 38083 ft 428 kts 290°
2026-05-04 15:59 45.79033 9.01845 38079 ft 428 kts 290°
2026-05-04 16:00 45.81335 8.93976 38075 ft 428 kts 289°
2026-05-04 16:00 45.83632 8.86099 38078 ft 428 kts 290°
2026-05-04 16:01 45.85924 8.78215 38081 ft 428 kts 290°
2026-05-04 16:01 45.88211 8.70325 38079 ft 428 kts 290°
2026-05-04 16:02 45.90495 8.62419 38101 ft 429 kts 289°
2026-05-04 16:03 45.93906 8.50562 38114 ft 428 kts 289°
2026-05-04 16:03 45.96172 8.42653 38112 ft 428 kts 289°
2026-05-04 16:04 45.98432 8.34742 38120 ft 427 kts 289°
2026-05-04 16:04 46.01801 8.22894 38155 ft 426 kts 289°
2026-05-04 16:05 46.04035 8.15015 38161 ft 425 kts 288°
2026-05-04 16:06 46.07379 8.03161 38143 ft 426 kts 288°
2026-05-04 16:07 46.11820 7.87332 38189 ft 427 kts 288°
2026-05-04 16:08 46.16236 7.71503 38137 ft 421 kts 288°
2026-05-04 16:09 46.21619 7.52041 38118 ft 417 kts 288°
2026-05-04 16:10 46.25914 7.36391 38058 ft 425 kts 288°
2026-05-04 16:11 46.30280 7.20397 38040 ft 429 kts 288°
2026-05-04 16:12 46.36817 6.96239 38056 ft 431 kts 287°
2026-05-04 16:13 46.41162 6.80046 38067 ft 430 kts 287°
2026-05-04 16:14 46.45779 6.64078 38063 ft 432 kts 295°
2026-05-04 16:16 46.53346 6.45293 38095 ft 430 kts 295°
2026-05-04 16:17 46.60765 6.26440 38062 ft 429 kts 295°
2026-05-04 16:18 46.66640 6.11391 38028 ft 429 kts 295°
2026-05-04 16:19 46.73997 5.92434 38028 ft 431 kts 294°
2026-05-04 16:20 46.81480 5.73402 38008 ft 438 kts 301°
2026-05-04 16:22 46.92570 5.57605 38001 ft 449 kts 311°
2026-05-04 16:23 47.06272 5.38737 38003 ft 451 kts 311°
2026-05-04 16:24 47.15417 5.26026 37545 ft 459 kts 311°
2026-05-04 16:25 47.20025 5.19602 36445 ft 455 kts 311°
2026-05-04 16:26 47.29181 5.06682 33698 ft 461 kts 309°
2026-05-04 16:26 47.35789 4.96395 31391 ft 464 kts 308°
2026-05-04 16:27 47.40247 4.89456 29771 ft 467 kts 309°
2026-05-04 16:28 47.46939 4.79104 27627 ft 457 kts 309°
2026-05-04 16:28 47.53374 4.69107 26288 ft 442 kts 309°
2026-05-04 16:29 47.62053 4.55556 24807 ft 449 kts 309°
2026-05-04 16:30 47.67736 4.46658 23829 ft 440 kts 309°